EW8311 Weather Reports


time (UTC)temp
F
wind
direction
speed
knots
gust
knots
rain 1hr
in
rain 24hr
in
rain mn
in
humidity
%
barometer
mb
20260508214519 91 292 6.1 13.9 0.00 0.00 0.00 12 1003.9
20260508213015 91 317 3.5 10.4 0.00 0.00 0.00 14 1004.0
20260508211513 91 323 6.1 11.3 0.00 0.00 0.00 14 1004.3
20260508210016 91 334 7.0 13.9 0.00 0.00 0.00 14 1004.5
20260508204510 91 243 6.1 12.2 0.00 0.00 0.00 14 1004.6
20260508203006 90 324 4.3 9.6 0.00 0.00 0.00 15 1004.8
20260508201505 90 331 3.5 8.7 0.00 0.00 0.00 16 1005.3
20260508200001 91 334 1.7 6.1 0.00 0.00 0.00 15 1005.5
20260508194601 90 142 0.9 6.1 0.00 0.00 0.00 16 1005.7
20260508193106 89 326 0.0 0.9 0.00 0.00 0.00 17 1006.0
20260508191552 87 108 1.7 3.5 0.00 0.00 0.00 17 1006.3
20260508190049 85 319 0.9 2.6 0.00 0.00 0.00 19 1006.6
20260508184558 85 86 1.7 4.3 0.00 0.00 0.00 18 1006.9
20260508183053 84 257 0.0 4.3 0.00 0.00 0.00 19 1007.0
20260508181543 83 258 0.9 4.3 0.00 0.00 0.00 21 1007.3
20260508180037 81 334 0.0 2.6 0.00 0.00 0.00 22 1007.6
20260508174556 81 320 0.0 2.6 0.00 0.00 0.00 21 1007.9
20260508173035 80 266 0.9 4.3 0.00 0.00 0.00 23 1008.0
20260508171534 79 342 0.0 4.3 0.00 0.00 0.00 23 1008.0
20260508170034 78 326 0.9 3.5 0.00 0.00 0.00 23 1008.2
20260508164528 77 127 0.9 2.6 0.00 0.00 0.00 23 1008.3
20260508163039 76 110 0.9 2.6 0.00 0.00 0.00 24 1008.4
20260508161524 76 264 0.9 2.6 0.00 0.00 0.00 26 1008.5
20260508160025 76 255 0.9 2.6 0.00 0.00 0.00 24 1008.5
20260508154520 75 113 0.0 3.5 0.00 0.00 0.00 25 1008.4
20260508153025 75 97 0.0 2.6 0.00 0.00 0.00 26 1008.4
20260508151523 73 227 0.9 1.7 0.00 0.00 0.00 27 1008.5
20260508150014 73 253 0.0 2.6 0.00 0.00 0.00 27 1008.6
20260508144512 74 108 0.0 2.6 0.00 0.00 0.00 27 1008.6
20260508143008 71 329 0.0 0.0 0.00 0.00 0.00 30 1008.5
20260508141505 69 328 0.0 0.9 0.00 0.00 0.00 33 1008.6
20260508140002 67 328 0.0 0.0 0.00 0.00 0.00 36 1008.6
20260508134607 66 328 0.0 0.0 0.00 0.00 0.00 39 1008.6
20260508133105 60 328 0.0 0.0 0.00 0.00 0.00 46 1008.3
20260508131559 58 328 0.0 0.0 0.00 0.00 0.00 53 1008.2
20260508130106 59 328 0.0 0.0 0.00 0.00 0.00 54 1008.1
20260508124551 60 328 0.0 0.0 0.00 0.00 0.00 44 1007.7
20260508123049 60 328 0.0 0.0 0.00 0.00 0.00 49 1007.5
20260508121550 59 328 0.0 0.0 0.00 0.00 0.00 45 1007.4
20260508120047 60 328 0.0 0.0 0.00 0.00 0.00 46 1007.3
20260508114544 61 328 0.0 0.0 0.00 0.00 0.00 43 1007.2
20260508113051 62 328 0.0 0.0 0.00 0.00 0.00 41 1007.1
20260508111542 63 328 0.0 0.0 0.00 0.00 0.00 39 1007.0
20260508110054 65 328 0.0 2.6 0.00 0.00 0.00 36 1006.9
20260508104540 64 342 0.9 1.7 0.00 0.00 0.00 38 1007.0
20260508103040 63 349 0.9 1.7 0.00 0.00 0.00 39 1006.9
20260508101549 62 337 0.9 1.7 0.00 0.00 0.00 42 1007.0
20260508100039 61 122 0.0 0.9 0.00 0.00 0.00 44 1006.9
20260508094549 61 122 0.0 0.0 0.00 0.00 0.00 44 1006.9
20260508093049 61 122 0.0 0.0 0.00 0.00 0.00 43 1006.9
20260508091532 63 122 0.0 0.0 0.00 0.00 0.00 42 1007.0
20260508090037 64 122 0.0 0.0 0.00 0.00 0.00 36 1007.0
20260508084526 66 122 0.0 0.9 0.00 0.00 0.00 32 1007.1
20260508083027 65 130 0.0 0.0 0.00 0.00 0.00 33 1007.3
20260508081523 65 130 0.0 0.9 0.00 0.00 0.00 33 1007.4
20260508080033 65 132 0.0 0.0 0.00 0.00 0.00 35 1007.5
20260508074523 66 132 0.0 0.9 0.00 0.00 0.00 32 1007.5
20260508073020 66 132 0.0 0.9 0.00 0.00 0.00 33 1007.8
20260508071516 66 132 0.0 0.0 0.00 0.00 0.00 35 1007.7
20260508070013 66 135 0.0 0.9 0.00 0.00 0.00 39 1007.8
20260508064513 68 257 0.0 1.7 0.00 0.00 0.00 34 1007.8
20260508063012 68 329 0.0 0.9 0.00 0.00 0.00 32 1008.0
20260508061512 68 329 0.0 1.7 0.00 0.00 0.00 32 1008.0
20260508060011 67 62 0.0 0.9 0.00 0.00 0.00 36 1008.0
20260508054511 67 76 0.0 0.9 0.00 0.00 0.00 35 1008.1
20260508053011 68 76 0.0 0.9 0.00 0.00 0.00 36 1008.0
20260508051509 69 93 0.0 0.9 0.00 0.00 0.00 32 1008.0
20260508050009 70 93 0.0 0.9 0.00 0.00 0.00 31 1008.0
20260508044513 71 93 0.0 0.0 0.00 0.00 0.00 28 1007.9
20260508043008 72 93 0.0 2.6 0.00 0.00 0.00 27 1007.8
20260508041508 73 94 0.0 2.6 0.00 0.00 0.00 25 1007.5
20260508040009 73 105 0.0 1.7 0.00 0.00 0.00 25 1007.5
20260508034506 72 290 0.0 0.0 0.00 0.00 0.00 27 1007.0
20260508033015 74 287 0.0 0.0 0.00 0.00 0.00 25 1006.7
20260508031505 75 287 0.0 3.5 0.00 0.00 0.00 24 1006.5
20260508030005 76 259 0.0 4.3 0.00 0.00 0.00 22 1006.4
20260508024504 77 323 3.5 10.4 0.00 0.00 0.00 20 1005.8
20260508023003 80 333 3.5 8.7 0.00 0.00 0.00 18 1005.3
20260508021503 82 347 4.3 9.6 0.00 0.00 0.00 14 1004.7
20260508020004 83 313 4.3 0.0 0.00 0.00 0.00 14 1004.3
20260508014505 84 323 2.6 11.3 0.00 0.00 0.00 13 1004.0
20260508013110 86 308 6.1 13.9 0.00 0.00 0.00 13 1003.9
20260508011603 87 325 0.9 3.5 0.00 0.00 0.00 13 1003.9
20260508010057 88 328 1.7 4.3 0.00 0.00 0.00 12 1003.8
20260508004600 87 305 1.7 5.2 0.00 0.00 0.00 12 1003.7
20260508003106 88 289 2.6 6.1 0.00 0.00 0.00 12 1003.6
20260508001555 87 328 3.5 7.8 0.00 0.00 0.00 12 1003.5
20260508000053 89 322 0.9 2.6 0.00 0.00 0.00 12 1003.6
20260507234553 87 282 0.9 2.6 0.00 0.00 0.00 12 1003.7
20260507233052 84 319 1.7 4.3 0.00 0.00 0.00 14 1003.8
20260507231556 86 309 1.7 5.2 0.00 0.00 0.00 13 1003.9
20260507230048 88 274 1.7 7.0 0.00 0.00 0.00 12 1003.9
20260507224558 88 103 0.0 8.7 0.00 0.00 0.00 12 1004.1
20260507223048 89 226 3.5 8.7 0.00 0.00 0.00 11 1004.1
20260507221544 88 279 0.9 7.0 0.00 0.00 0.00 13 1004.3
20260507220041 89 137 1.7 7.8 0.00 0.00 0.00 11 1004.4